FW5165 Weather Reports


time (UTC)temp
C
wind
direction
speed
KPH
gust
KPH
rain 1hr
cm
rain 24hr
cm
rain mn
cm
humidity
%
barometer
mb
20220525135013 21 226 0.0 6.4 0.00 0.00 0.00 43 1010.0
20220525134515 21 121 0.0 3.2 0.00 0.00 0.00 43 1009.9
20220525134011 21 121 0.0 3.2 0.00 0.00 0.00 43 1009.8
20220525133511 21 121 1.6 3.2 0.00 0.00 0.00 42 1009.8
20220525133010 21 90 0.0 3.2 0.00 0.00 0.00 42 1009.9
20220525132511 21 90 1.6 6.4 0.00 0.00 0.00 42 1009.8
20220525132008 21 90 0.0 6.4 0.00 0.00 0.00 40 1009.7
20220525131512 21 94 0.0 6.4 0.00 0.00 0.00 40 1009.6
20220525131008 21 94 1.6 4.8 0.00 0.00 0.00 40 1009.6
20220525130508 21 95 1.6 3.2 0.00 0.00 0.00 41 1009.6
20220525130009 21 96 1.6 6.4 0.00 0.00 0.00 41 1009.6
20220525125508 21 95 1.6 6.4 0.00 0.00 0.00 41 1009.6
20220525125009 21 95 1.6 8.0 0.00 0.00 0.00 42 1009.6
20220525124505 21 95 3.2 8.0 0.00 0.00 0.00 43 1009.7
20220525124009 21 137 1.6 4.8 0.00 0.00 0.00 43 1009.7
20220525123507 21 140 1.6 6.4 0.00 0.00 0.00 43 1009.6
20220525123005 21 82 1.6 4.8 0.00 0.00 0.00 43 1009.5
20220525122504 21 86 1.6 4.8 0.00 0.00 0.00 44 1009.6
20220525122004 21 86 1.6 4.8 0.00 0.00 0.00 43 1009.5
20220525121504 21 86 1.6 6.4 0.00 0.00 0.00 44 1009.6
20220525121005 21 89 3.2 6.4 0.00 0.00 0.00 44 1009.6
20220525120504 21 92 1.6 6.4 0.00 0.00 0.00 44 1009.6
20220525120003 21 150 0.0 3.2 0.00 0.00 0.00 44 1009.6
20220525115502 21 153 0.0 6.4 0.00 0.00 0.00 44 1009.5
20220525115002 21 153 1.6 6.4 0.00 0.00 0.00 44 1009.4
20220525114502 21 188 0.0 3.2 0.00 0.00 0.00 43 1009.4
20220525114101 21 188 1.6 3.2 0.00 0.00 0.00 44 1009.4
20220525113559 21 190 0.0 1.6 0.00 0.00 0.00 44 1009.4
20220525113100 21 190 0.0 3.2 0.00 0.00 0.00 44 1009.3
20220525112601 21 190 0.0 6.4 0.00 0.00 0.00 45 1009.3
20220525112057 21 191 1.6 4.8 0.00 0.00 0.00 44 1009.3
20220525111606 21 53 0.0 6.4 0.00 0.00 0.00 43 1009.2
20220525111055 21 53 1.6 4.8 0.00 0.00 0.00 43 1009.2
20220525110554 22 55 1.6 4.8 0.00 0.00 0.00 42 1009.3
20220525110054 22 21 0.0 6.4 0.00 0.00 0.00 42 1009.2
20220525105556 22 21 3.2 6.4 0.00 0.00 0.00 42 1009.2
20220525105052 22 21 0.0 0.0 0.00 0.00 0.00 42 1009.2
20220525104553 22 21 0.0 1.6 0.00 0.00 0.00 42 1009.1
20220525104054 22 21 0.0 3.2 0.00 0.00 0.00 42 1009.1
20220525103551 22 21 0.0 3.2 0.00 0.00 0.00 41 1009.0
20220525103050 22 21 0.0 3.2 0.00 0.00 0.00 41 1009.0
20220525102549 22 21 0.0 3.2 0.00 0.00 0.00 41 1008.9
20220525102048 22 21 0.0 8.0 0.00 0.00 0.00 41 1008.8
20220525101547 22 44 3.2 8.0 0.00 0.00 0.00 41 1008.7
20220525101050 22 51 1.6 9.7 0.00 0.00 0.00 41 1008.7
20220525100549 22 59 4.8 9.7 0.00 0.00 0.00 41 1008.7
20220525100045 23 34 3.2 8.0 0.00 0.00 0.00 40 1008.9
20220525095545 23 39 0.0 6.4 0.00 0.00 0.00 40 1008.8
20220525095047 23 50 1.6 4.8 0.00 0.00 0.00 39 1008.8
20220525094554 23 49 1.6 8.0 0.00 0.00 0.00 39 1008.8
20220525094044 23 53 3.2 8.0 0.00 0.00 0.00 39 1008.8
20220525093543 23 106 3.2 8.0 0.00 0.00 0.00 38 1008.7
20220525093043 23 57 3.2 4.8 0.00 0.00 0.00 39 1008.6
20220525092541 23 86 3.2 6.4 0.00 0.00 0.00 38 1008.6
20220525092042 23 67 3.2 6.4 0.00 0.00 0.00 38 1008.6
20220525091540 23 81 1.6 8.0 0.00 0.00 0.00 38 1008.5
20220525091041 23 60 4.8 8.0 0.00 0.00 0.00 38 1008.5
20220525090539 23 38 3.2 8.0 0.00 0.00 0.00 38 1008.6
20220525090038 23 86 3.2 8.0 0.00 0.00 0.00 38 1008.5
20220525085538 23 96 3.2 8.0 0.00 0.00 0.00 38 1008.6
20220525085037 24 59 3.2 9.7 0.00 0.00 0.00 38 1008.5
20220525084537 24 107 4.8 9.7 0.00 0.00 0.00 37 1008.5
20220525084036 24 89 3.2 4.8 0.00 0.00 0.00 37 1008.6
20220525083538 24 74 1.6 3.2 0.00 0.00 0.00 37 1008.6
20220525083036 24 47 0.0 6.4 0.00 0.00 0.00 37 1008.7
20220525082537 24 47 1.6 6.4 0.00 0.00 0.00 37 1008.7
20220525082038 24 52 1.6 4.8 0.00 0.00 0.00 37 1008.7
20220525081537 24 65 1.6 3.2 0.00 0.00 0.00 37 1008.8
20220525081033 24 58 1.6 6.4 0.00 0.00 0.00 37 1008.8
20220525080536 24 58 0.0 6.4 0.00 0.00 0.00 37 1008.8
20220525080032 24 49 1.6 3.2 0.00 0.00 0.00 37 1008.9
20220525075536 24 48 1.6 3.2 0.00 0.00 0.00 36 1008.8
20220525075032 24 52 0.0 8.0 0.00 0.00 0.00 36 1008.8
20220525074531 24 44 1.6 8.0 0.00 0.00 0.00 36 1008.8
20220525074029 24 78 0.0 6.4 0.00 0.00 0.00 36 1008.9
20220525073533 24 90 1.6 8.0 0.00 0.00 0.00 36 1008.9
20220525073029 25 71 1.6 4.8 0.00 0.00 0.00 36 1008.9
20220525072528 25 68 1.6 4.8 0.00 0.00 0.00 36 1008.9
20220525072037 25 71 3.2 6.4 0.00 0.00 0.00 36 1008.9
20220525071532 25 90 3.2 6.4 0.00 0.00 0.00 36 1009.0
20220525071029 25 100 3.2 6.4 0.00 0.00 0.00 36 1009.1
20220525070527 25 90 3.2 4.8 0.00 0.00 0.00 35 1009.1
20220525070024 25 74 1.6 4.8 0.00 0.00 0.00 35 1009.2
20220525065523 25 74 1.6 4.8 0.00 0.00 0.00 35 1009.2
20220525065026 25 76 1.6 6.4 0.00 0.00 0.00 35 1009.2
20220525064525 25 69 3.2 6.4 0.00 0.00 0.00 35 1009.2
20220525064022 25 58 1.6 6.4 0.00 0.00 0.00 35 1009.3
20220525063523 25 60 3.2 8.0 0.00 0.00 0.00 35 1009.2
20220525063022 25 80 3.2 6.4 0.00 0.00 0.00 35 1009.3
20220525062526 25 85 1.6 6.4 0.00 0.00 0.00 34 1009.2
20220525062022 25 90 1.6 8.0 0.00 0.00 0.00 34 1009.3
20220525061522 25 43 3.2 8.0 0.00 0.00 0.00 34 1009.4
20220525061023 26 128 1.6 6.4 0.00 0.00 0.00 33 1009.4
20220525060522 26 100 1.6 6.4 0.00 0.00 0.00 32 1009.3
20220525060021 27 102 1.6 4.8 0.00 0.00 0.00 31 1009.3
20220525055521 27 102 1.6 3.2 0.00 0.00 0.00 31 1009.5
20220525055021 27 102 1.6 6.4 0.00 0.00 0.00 31 1009.4
20220525054521 26 102 1.6 4.8 0.00 0.00 0.00 31 1009.4
20220525054024 26 102 0.0 6.4 0.00 0.00 0.00 31 1009.4
20220525053522 26 102 1.6 4.8 0.00 0.00 0.00 31 1009.6
20220525053025 27 102 1.6 4.8 0.00 0.00 0.00 30 1009.5
20220525052525 27 146 0.0 6.4 0.00 0.00 0.00 30 1009.4
20220525052025 28 34 0.0 3.2 0.00 0.00 0.00 30 1009.4
20220525051520 28 34 0.0 1.6 0.00 0.00 0.00 29 1009.4
20220525051020 28 34 0.0 1.6 0.00 0.00 0.00 29 1009.4
20220525050520 28 34 0.0 1.6 0.00 0.00 0.00 29 1009.3
20220525050025 28 31 0.0 1.6 0.00 0.00 0.00 29 1009.4
20220525045519 28 31 0.0 1.6 0.00 0.00 0.00 29 1009.3
20220525045022 28 31 0.0 1.6 0.00 0.00 0.00 29 1009.3
20220525044519 28 33 0.0 1.6 0.00 0.00 0.00 29 1009.2
20220525044018 28 34 0.0 1.6 0.00 0.00 0.00 28 1009.1
20220525043522 28 33 0.0 3.2 0.00 0.00 0.00 28 1009.1
20220525043024 28 33 0.0 3.2 0.00 0.00 0.00 28 1009.2
20220525042519 28 348 0.0 3.2 0.00 0.00 0.00 27 1009.2
20220525042018 28 348 0.0 3.2 0.00 0.00 0.00 27 1009.2
20220525041518 28 348 0.0 3.2 0.00 0.00 0.00 28 1009.2
20220525041017 29 348 0.0 3.2 0.00 0.00 0.00 27 1009.2
20220525040519 29 348 0.0 3.2 0.00 0.00 0.00 27 1009.2
20220525040027 29 348 0.0 0.0 0.00 0.00 0.00 27 1009.1
20220525035519 29 348 0.0 0.0 0.00 0.00 0.00 27 1009.1
20220525035017 30 348 0.0 0.0 0.00 0.00 0.00 26 1009.1
20220525034516 30 348 0.0 3.2 0.00 0.00 0.00 26 1009.0
20220525034017 30 348 0.0 3.2 0.00 0.00 0.00 26 1009.1
20220525033518 30 348 0.0 3.2 0.00 0.00 0.00 25 1009.0
20220525031010 31 348 0.0 1.6 0.00 0.00 0.00 24 1008.8
20220525030511 31 348 0.0 3.2 0.00 0.00 0.00 23 1008.8
20220525030011 31 348 0.0 3.2 0.00 0.00 0.00 23 1008.8
20220525025514 31 348 0.0 1.6 0.00 0.00 0.00 23 1008.8
20220525025010 31 348 0.0 3.2 0.00 0.00 0.00 22 1008.7
20220525024509 31 348 0.0 6.4 0.00 0.00 0.00 22 1008.7
20220525024011 32 348 1.6 8.0 0.00 0.00 0.00 22 1008.8
20220525023509 32 348 1.6 8.0 0.00 0.00 0.00 23 1008.9
20220525023008 32 348 1.6 11.3 0.00 0.00 0.00 21 1008.9
20220525022508 32 355 4.8 11.3 0.00 0.00 0.00 21 1008.9
20220525022008 32 337 4.8 12.9 0.00 0.00 0.00 21 1008.9
20220525021508 32 337 4.8 17.7 0.00 0.00 0.00 20 1008.9
20220525021007 32 343 9.7 16.1 0.00 0.00 0.00 20 1008.9
20220525020507 32 336 8.0 14.5 0.00 0.00 0.00 21 1008.9
20220525020008 32 338 3.2 14.5 0.00 0.00 0.00 21 1008.8
20220525015506 32 335 8.0 17.7 0.00 0.00 0.00 20 1008.9
20220525015010 32 336 8.0 17.7 0.00 0.00 0.00 19 1008.9
20220525014505 32 330 9.7 16.1 0.00 0.00 0.00 19 1008.9
20220525014006 32 341 3.2 20.9 0.00 0.00 0.00 20 1008.9
20220525013505 33 337 16.1 20.9 0.00 0.00 0.00 19 1009.1
20220525013005 33 317 8.0 16.1 0.00 0.00 0.00 20 1009.1
20220525012509 33 355 9.7 16.1 0.00 0.00 0.00 19 1009.0
20220525012004 33 341 9.7 17.7 0.00 0.00 0.00 19 1009.0
20220525011504 33 340 9.7 17.7 0.00 0.00 0.00 19 1009.0
20220525011006 33 331 6.4 19.3 0.00 0.00 0.00 19 1008.9
20220525010504 33 341 9.7 19.3 0.00 0.00 0.00 18 1009.0
20220525010003 33 338 4.8 20.9 0.00 0.00 0.00 20 1008.9
20220525005503 33 331 9.7 22.5 0.00 0.00 0.00 19 1009.0
20220525005002 33 336 9.7 22.5 0.00 0.00 0.00 18 1009.1
20220525004501 33 329 8.0 17.7 0.00 0.00 0.00 18 1009.1
20220525004100 33 336 9.7 20.9 0.00 0.00 0.00 19 1009.2
20220525003559 33 324 9.7 20.9 0.00 0.00 0.00 18 1009.2
20220525003102 33 330 11.3 19.3 0.00 0.00 0.00 19 1009.3
20220525002558 33 16 4.8 12.9 0.00 0.00 0.00 19 1009.4
20220525002058 33 305 6.4 14.5 0.00 0.00 0.00 18 1009.4
20220525001603 33 303 4.8 14.5 0.00 0.00 0.00 18 1009.3
20220525001057 33 310 1.6 16.1 0.00 0.00 0.00 19 1009.4
20220525000557 33 10 4.8 16.1 0.00 0.00 0.00 19 1009.4
20220525000102 33 337 4.8 19.3 0.00 0.00 0.00 18 1009.5
20220524235559 33 331 9.7 19.3 0.00 0.00 0.00 18 1009.5
20220524235056 33 286 6.4 16.1 0.00 0.00 0.00 18 1009.6
20220524234555 33 342 4.8 19.3 0.00 0.00 0.00 18 1009.6
20220524234055 33 338 12.9 20.9 0.00 0.00 0.00 19 1009.6
20220524233555 33 336 11.3 20.9 0.00 0.00 0.00 18 1009.6
20220524233053 33 321 6.4 17.7 0.00 0.00 0.00 18 1009.6
20220524232553 33 347 9.7 19.3 0.00 0.00 0.00 18 1009.6
20220524232053 33 290 9.7 19.3 0.00 0.00 0.00 19 1009.6
20220524231557 33 315 8.0 16.1 0.00 0.00 0.00 16 1009.7
20220524231053 33 323 6.4 20.9 0.00 0.00 0.00 18 1009.7
20220524230557 33 328 8.0 20.9 0.00 0.00 0.00 17 1009.7
20220524230104 33 315 3.2 20.9 0.00 0.00 0.00 16 1009.8
20220524225555 33 310 11.3 20.9 0.00 0.00 0.00 15 1009.9
20220524225054 33 283 6.4 17.7 0.00 0.00 0.00 16 1009.9
20220524224603 33 338 6.4 14.5 0.00 0.00 0.00 16 1009.9
20220524224051 33 252 6.4 20.9 0.00 0.00 0.00 16 1009.9
20220524223549 33 338 4.8 19.3 0.00 0.00 0.00 16 1010.0
20220524223052 33 339 11.3 19.3 0.00 0.00 0.00 16 1010.1
20220524222548 33 341 6.4 19.3 0.00 0.00 0.00 17 1010.1
20220524222047 32 299 4.8 16.1 0.00 0.00 0.00 15 1010.2
20220524221546 32 323 4.8 17.7 0.00 0.00 0.00 18 1010.2
20220524221046 32 360 9.7 29.0 0.00 0.00 0.00 17 1010.3
20220524220546 32 9 11.3 25.7 0.00 0.00 0.00 17 1010.6
20220524220044 32 340 11.3 25.7 0.00 0.00 0.00 16 1010.6
20220524215544 32 9 14.5 25.7 0.00 0.00 0.00 18 1010.6
20220524215046 32 350 12.9 19.3 0.00 0.00 0.00 16 1010.8
20220524214557 32 340 6.4 19.3 0.00 0.00 0.00 18 1010.8
20220524214041 32 20 11.3 24.1 0.00 0.00 0.00 19 1010.7
20220524213542 32 338 14.5 24.1 0.00 0.00 0.00 19 1010.9
20220524213041 32 333 3.2 22.5 0.00 0.00 0.00 21 1010.9
20220524212544 32 336 4.8 22.5 0.00 0.00 0.00 19 1010.9
20220524212044 32 360 14.5 25.7 0.00 0.00 0.00 20 1010.9
20220524211541 32 350 3.2 25.7 0.00 0.00 0.00 20 1010.9
20220524211041 32 347 12.9 22.5 0.00 0.00 0.00 19 1010.9
20220524210544 31 302 6.4 17.7 0.00 0.00 0.00 22 1010.9
20220524210037 31 304 4.8 32.2 0.00 0.00 0.00 21 1010.9
20220524205538 31 318 4.8 22.5 0.00 0.00 0.00 23 1010.9
20220524205038 31 24 8.0 25.7 0.00 0.00 0.00 23 1010.9
20220524204539 31 323 16.1 25.7 0.00 0.00 0.00 23 1011.0
20220524204036 31 339 12.9 24.1 0.00 0.00 0.00 22 1011.0
20220524203537 31 278 1.6 14.5 0.00 0.00 0.00 27 1011.1
20220524203035 30 265 6.4 14.5 0.00 0.00 0.00 30 1011.1
20220524202535 30 262 8.0 16.1 0.00 0.00 0.00 31 1011.3
20220524202034 30 265 6.4 22.5 0.00 0.00 0.00 30 1011.3
20220524201534 30 333 9.7 22.5 0.00 0.00 0.00 26 1011.3
20220524201033 30 336 11.3 19.3 0.00 0.00 0.00 26 1011.3
20220524200534 30 333 8.0 16.1 0.00 0.00 0.00 25 1011.4
20220524200031 30 287 8.0 14.5 0.00 0.00 0.00 27 1011.4
20220524195531 30 297 4.8 16.1 0.00 0.00 0.00 27 1011.4
20220524195029 29 333 8.0 16.1 0.00 0.00 0.00 28 1011.4
20220524194528 29 278 4.8 16.1 0.00 0.00 0.00 29 1011.5
20220524194029 29 313 6.4 16.1 0.00 0.00 0.00 28 1011.5
20220524193531 29 256 4.8 14.5 0.00 0.00 0.00 31 1011.5
20220524193030 29 255 4.8 14.5 0.00 0.00 0.00 30 1011.6
20220524192527 29 276 3.2 12.9 0.00 0.00 0.00 31 1011.6
20220524192028 29 276 4.8 11.3 0.00 0.00 0.00 31 1011.5
20220524191526 29 294 4.8 11.3 0.00 0.00 0.00 31 1011.5
20220524191029 29 211 1.6 9.7 0.00 0.00 0.00 35 1011.6
20220524190527 28 278 3.2 12.9 0.00 0.00 0.00 33 1011.6
20220524190041 28 343 4.8 14.5 0.00 0.00 0.00 33 1011.6
20220524185521 28 288 6.4 17.7 0.00 0.00 0.00 33 1011.5
20220524185021 27 273 8.0 17.7 0.00 0.00 0.00 32 1011.5
20220524184526 28 284 4.8 16.1 0.00 0.00 0.00 34 1011.7
20220524184020 27 332 3.2 19.3 0.00 0.00 0.00 34 1011.7
20220524183520 27 338 9.7 19.3 0.00 0.00 0.00 33 1011.8
20220524183019 27 333 3.2 14.5 0.00 0.00 0.00 32 1011.8
20220524182521 27 340 8.0 14.5 0.00 0.00 0.00 32 1011.8
20220524182018 27 289 3.2 9.7 0.00 0.00 0.00 33 1011.8
20220524181528 27 288 4.8 11.3 0.00 0.00 0.00 33 1011.8
20220524181016 27 323 3.2 16.1 0.00 0.00 0.00 34 1011.8
20220524180516 26 259 8.0 16.1 0.00 0.00 0.00 34 1011.8
20220524180013 26 219 4.8 16.1 0.00 0.00 0.00 38 1011.7
20220524175513 26 224 8.0 16.1 0.00 0.00 0.00 37 1011.8
20220524175012 26 207 4.8 12.9 0.00 0.00 0.00 38 1012.1
20220524174511 26 257 6.4 12.9 0.00 0.00 0.00 38 1011.9
20220524174012 25 235 6.4 12.9 0.00 0.00 0.00 37 1011.8
20220524173510 25 227 6.4 12.9 0.00 0.00 0.00 38 1011.8
20220524173013 25 229 8.0 11.3 0.00 0.00 0.00 39 1011.8
20220524172508 25 205 3.2 9.7 0.00 0.00 0.00 39 1011.8
20220524172007 25 237 4.8 11.3 0.00 0.00 0.00 41 1011.9
20220524171507 25 266 3.2 11.3 0.00 0.00 0.00 41 1011.9
20220524171113 25 217 4.8 11.3 0.00 0.00 0.00 41 1011.9
20220524170505 24 201 6.4 11.3 0.00 0.00 0.00 42 1011.9
20220524170002 24 225 0.0 9.7 0.00 0.00 0.00 43 1011.9
20220524165506 24 223 4.8 9.7 0.00 0.00 0.00 43 1012.0
20220524165001 23 252 1.6 9.7 0.00 0.00 0.00 44 1012.0
20220524164607 23 250 1.6 9.7 0.00 0.00 0.00 47 1011.9
20220524164103 23 245 1.6 9.7 0.00 0.00 0.00 45 1012.0
20220524163604 23 210 1.6 6.4 0.00 0.00 0.00 46 1012.1
20220524163100 23 219 1.6 4.8 0.00 0.00 0.00 47 1012.0
20220524162558 22 219 0.0 6.4 0.00 0.00 0.00 46 1012.1
20220524162057 22 216 1.6 6.4 0.00 0.00 0.00 47 1012.1
20220524161557 22 217 0.0 8.0 0.00 0.00 0.00 48 1012.1
20220524161059 22 226 3.2 8.0 0.00 0.00 0.00 50 1012.0
20220524160600 22 225 1.6 8.0 0.00 0.00 0.00 51 1011.9
20220524160105 22 263 0.0 9.7 0.00 0.00 0.00 52 1012.0
20220524155558 22 270 4.8 9.7 0.00 0.00 0.00 51 1011.9
20220524155054 22 228 1.6 8.0 0.00 0.00 0.00 50 1011.9
20220524154600 21 237 1.6 4.8 0.00 0.00 0.00 50 1011.8
20220524154054 21 242 1.6 6.4 0.00 0.00 0.00 52 1011.7
20220524153554 21 242 0.0 6.4 0.00 0.00 0.00 52 1011.7
20220524153055 21 251 1.6 8.0 0.00 0.00 0.00 52 1011.7
20220524152552 21 262 1.6 8.0 0.00 0.00 0.00 52 1011.6
20220524152053 21 340 0.0 4.8 0.00 0.00 0.00 52 1011.5
20220524151550 21 340 1.6 3.2 0.00 0.00 0.00 53 1011.5
20220524151050 21 340 0.0 3.2 0.00 0.00 0.00 48 1011.4
20220524150549 21 340 1.6 3.2 0.00 0.00 0.00 48 1011.4
20220524150049 20 340 0.0 1.6 0.00 0.00 0.00 48 1011.4
20220524145548 20 340 0.0 0.0 0.00 0.00 0.00 46 1011.4
20220524145048 20 340 0.0 1.6 0.00 0.00 0.00 46 1011.3
20220524144547 20 340 0.0 3.2 0.00 0.00 0.00 46 1011.4
20220524144047 19 340 1.6 3.2 0.00 0.00 0.00 48 1011.3
20220524143551 19 340 0.0 3.2 0.00 0.00 0.00 52 1011.4
20220524143047 19 340 0.0 3.2 0.00 0.00 0.00 46 1011.3
20220524142546 19 340 0.0 1.6 0.00 0.00 0.00 47 1011.3
20220524142046 18 340 0.0 1.6 0.00 0.00 0.00 47 1011.3
20220524141545 18 340 0.0 1.6 0.00 0.00 0.00 47 1011.3
20220524141046 18 340 0.0 0.0 0.00 0.00 0.00 49 1011.4
20220524140544 18 340 0.0 0.0 0.00 0.00 0.00 49 1011.3
20220524140044 18 340 0.0 0.0 0.00 0.00 0.00 48 1011.3
20220524135549 18 340 0.0 3.2 0.00 0.00 0.00 48 1011.1